Weather History for Falfurrias, TX

Change the Weather History Date:

Monday, March 26, 2012

  Actual Average (KNQI) Record (KNQI)
Temperature  
Mean Temperature 73 °F -  
Max Temperature 86 °F 75 °F 90 °F (2009)
Min Temperature 60 °F 58 °F 45 °F (2013)
Cooling Degree Days 8    
Growing Degree Days 23 (Base 50)    
Moisture  
Dew Point 60 °F    
Average Humidity 73    
Maximum Humidity 100    
Minimum Humidity 35    
Precipitation  
Precipitation 0.00 in - - ()
Sea Level Pressure  
Sea Level Pressure 29.99 in    
Wind  
Wind Speed 4 mph (ESE)    
Max Wind Speed 17 mph    
Max Gust Speed 23 mph    
Visibility 6 miles    
Events      
Averages and records for this station are not official NWS values.
T = Trace of Precipitation, MM = Missing Value Source: NWS Daily Summary

Daily Weather History Graph

Daily Weather History Graph

Search for Another Location

Airport:

Trip Planner

Search our weather history database for the weather conditions in past years. The results will help you decide how hot, cold, wet, or windy it might be!

Date:

Astronomy

Mar. 26, 2012 Rise Set
Actual Time 7:29 AM CDT 7:47 PM CDT
Civil Twilight 7:05 AM CDT 8:10 PM CDT
Nautical Twilight 6:38 AM CDT 8:37 PM CDT
Astronomical Twilight 6:11 AM CDT 9:05 PM CDT
Moon 9:42 AM CDT (3/26) 11:33 PM CDT (3/26)
Length of Visible Light 13h 04m
Length of Day
12h 17m
Waxing Crescent, 15% of the Moon is Illuminated
Mar 26
Waxing Crescent
Mar 30
First Quarter
Apr 6
Full
Apr 13
Last Quarter
Apr 21
New

Hourly Weather History & Observations

Time (CDT) Temp. Heat Index Dew Point Humidity Pressure Visibility Wind Dir Wind Speed Gust Speed Precip Events Conditions
12:15 AM 62.6 °F - 60.8 °F 94% 30.02 in 2.5 mi ENE 3.5 mph - N/A   Unknown
12:35 AM 60.8 °F - 59.0 °F 94% 30.02 in 0.2 mi Calm Calm - N/A   Unknown
12:55 AM 60.8 °F - 59.0 °F 94% 30.01 in 0.2 mi Calm Calm - N/A   Overcast
1:15 AM 60.8 °F - 59.0 °F 94% 30.01 in 0.2 mi Calm Calm - N/A   Overcast
1:35 AM 60.8 °F - 59.0 °F 94% 30.01 in 0.2 mi Calm Calm - N/A   Overcast
1:55 AM 60.8 °F - 59.0 °F 94% 30.02 in 0.2 mi Calm Calm - N/A   Overcast
2:15 AM 60.8 °F - 59.0 °F 94% 30.02 in 0.2 mi Calm Calm - N/A   Overcast
2:35 AM 60.8 °F - 59.0 °F 94% 30.01 in 0.2 mi Calm Calm - N/A   Overcast
2:55 AM 60.8 °F - 59.0 °F 94% 30.01 in 0.2 mi Calm Calm - N/A   Overcast
3:15 AM 60.8 °F - 59.0 °F 94% 30.01 in 0.2 mi Calm Calm - N/A   Overcast
3:35 AM 60.8 °F - 59.0 °F 94% 30.00 in 0.2 mi Calm Calm - N/A   Overcast
3:55 AM 60.8 °F - 59.0 °F 94% 30.00 in 0.2 mi Calm Calm - N/A   Overcast
4:15 AM 60.8 °F - 59.0 °F 94% 30.00 in 0.5 mi Calm Calm - N/A   Overcast
4:35 AM 60.8 °F - 59.0 °F 94% 30.00 in 0.2 mi Calm Calm - N/A   Overcast
4:55 AM 62.6 °F - 60.8 °F 94% 30.01 in 0.2 mi Calm Calm - N/A   Overcast
5:15 AM 62.6 °F - 60.8 °F 94% 30.01 in 0.2 mi Calm Calm - N/A   Overcast
5:35 AM 62.6 °F - 60.8 °F 94% 30.00 in 0.5 mi ENE 3.5 mph - N/A   Overcast
5:55 AM 62.6 °F - 60.8 °F 94% 30.00 in 0.5 mi Calm Calm - N/A   Overcast
6:15 AM 62.6 °F - 60.8 °F 94% 30.01 in 0.5 mi Calm Calm - N/A   Overcast
6:35 AM 62.6 °F - 60.8 °F 94% 30.02 in 0.8 mi Calm Calm - N/A   Overcast
6:55 AM 62.6 °F - 60.8 °F 94% 30.02 in 2.0 mi East 3.5 mph - N/A   Overcast
7:15 AM 62.6 °F - 60.8 °F 94% 30.02 in 3.0 mi ENE 3.5 mph - N/A   Overcast
7:35 AM 62.6 °F - 60.8 °F 94% 30.02 in 4.0 mi ENE 3.5 mph - N/A   Overcast
7:55 AM 62.6 °F - 60.8 °F 94% 30.03 in 3.0 mi East 3.5 mph - N/A   Overcast
8:15 AM 62.6 °F - 60.8 °F 94% 30.03 in 4.0 mi East 4.6 mph - N/A   Overcast
8:35 AM 62.6 °F - 62.6 °F 100% 30.04 in 4.0 mi East 3.5 mph - N/A   Overcast
8:55 AM 64.4 °F - 62.6 °F 94% 30.05 in 5.0 mi East 4.6 mph - N/A   Overcast
9:15 AM 64.4 °F - 62.6 °F 94% 30.05 in 7.0 mi East 3.5 mph - N/A   Overcast
9:35 AM 64.4 °F - 64.4 °F 100% 30.06 in 7.0 mi East 3.5 mph - N/A   Overcast
9:55 AM 69.8 °F - 68.0 °F 94% 30.06 in 10.0 mi ESE 8.1 mph - N/A   Scattered Clouds
10:15 AM 71.6 °F - 62.6 °F 73% 30.06 in 7.0 mi ESE 8.1 mph - N/A   Scattered Clouds
10:35 AM 71.6 °F - 62.6 °F 73% 30.06 in 7.0 mi ESE 5.8 mph - N/A   Mostly Cloudy
11:15 AM 75.2 °F - 62.6 °F 65% 30.06 in 10.0 mi ESE 8.1 mph - N/A   Scattered Clouds
11:35 AM 77.0 °F - 60.8 °F 57% 30.06 in 10.0 mi ESE 8.1 mph - N/A   Scattered Clouds
11:55 AM 77.0 °F - 60.8 °F 57% 30.05 in 10.0 mi SSE 4.6 mph - N/A   Scattered Clouds
12:15 PM 80.6 °F 81.5 °F 60.8 °F 51% 30.03 in 10.0 mi SE 6.9 mph - N/A   Scattered Clouds
12:35 PM 80.6 °F 81.1 °F 59.0 °F 48% 30.03 in 10.0 mi East 8.1 mph - N/A   Scattered Clouds
12:55 PM 82.4 °F 82.0 °F 57.2 °F 42% 30.02 in 10.0 mi SE 6.9 mph - N/A   Mostly Cloudy
1:15 PM 82.4 °F 82.5 °F 59.0 °F 45% 30.01 in 10.0 mi SE 10.4 mph 17.3 mph N/A   Mostly Cloudy
1:35 PM 82.4 °F 82.0 °F 57.2 °F 42% 29.99 in 10.0 mi ESE 9.2 mph 16.1 mph N/A   Mostly Cloudy
1:55 PM 84.2 °F 83.0 °F 55.4 °F 37% 29.98 in 7.0 mi SSE 8.1 mph 16.1 mph N/A   Mostly Cloudy
2:15 PM 84.2 °F 83.5 °F 57.2 °F 40% 29.97 in 10.0 mi East 6.9 mph - N/A   Mostly Cloudy
2:35 PM 84.2 °F 83.5 °F 57.2 °F 40% 29.96 in 10.0 mi ESE 8.1 mph - N/A   Mostly Cloudy
2:55 PM 86.0 °F 84.5 °F 55.4 °F 35% 29.94 in 10.0 mi ESE 8.1 mph - N/A   Mostly Cloudy
3:15 PM 86.0 °F 84.5 °F 55.4 °F 35% 29.93 in 10.0 mi ESE 11.5 mph 17.3 mph N/A   Mostly Cloudy
3:35 PM 86.0 °F 84.9 °F 57.2 °F 37% 29.93 in 10.0 mi SE 11.5 mph 17.3 mph N/A   Mostly Cloudy
3:55 PM 86.0 °F 84.9 °F 57.2 °F 37% 29.92 in 10.0 mi SE 9.2 mph - N/A   Scattered Clouds
4:15 PM 86.0 °F 85.4 °F 59.0 °F 40% 29.91 in 10.0 mi ESE 12.7 mph 19.6 mph N/A   Scattered Clouds
4:35 PM 84.2 °F 83.8 °F 59.0 °F 42% 29.91 in 10.0 mi East 13.8 mph 19.6 mph N/A   Scattered Clouds
4:55 PM 84.2 °F 84.4 °F 60.8 °F 45% 29.90 in 10.0 mi East 12.7 mph 17.3 mph N/A   Clear
5:15 PM 82.4 °F 82.9 °F 60.8 °F 48% 29.90 in 10.0 mi East 12.7 mph 18.4 mph N/A   Scattered Clouds
5:35 PM 82.4 °F 82.9 °F 60.8 °F 48% 29.90 in 10.0 mi East 15.0 mph 19.6 mph N/A   Scattered Clouds
5:55 PM 82.4 °F 83.4 °F 62.6 °F 51% 29.91 in 10.0 mi East 13.8 mph 19.6 mph N/A   Scattered Clouds
6:15 PM 80.6 °F 81.8 °F 62.6 °F 54% 29.91 in 10.0 mi East 15.0 mph 23.0 mph N/A   Mostly Cloudy
6:35 PM 78.8 °F - 62.6 °F 57% 29.92 in 10.0 mi East 17.3 mph 20.7 mph N/A   Scattered Clouds
6:55 PM 78.8 °F - 62.6 °F 57% 29.92 in 10.0 mi ESE 11.5 mph 20.7 mph N/A   Clear
7:15 PM 77.0 °F - 62.6 °F 61% 29.93 in 10.0 mi ESE 15.0 mph 20.7 mph N/A   Clear
7:35 PM 77.0 °F - 64.4 °F 65% 29.93 in 10.0 mi ESE 11.5 mph 19.6 mph N/A   Clear
7:55 PM 75.2 °F - 64.4 °F 69% 29.93 in 10.0 mi ESE 11.5 mph - N/A   Clear
8:15 PM 73.4 °F - 64.4 °F 73% 29.94 in 10.0 mi ESE 11.5 mph 19.6 mph N/A   Scattered Clouds
8:35 PM 73.4 °F - 64.4 °F 73% 29.96 in 10.0 mi ESE 6.9 mph - N/A   Scattered Clouds
8:55 PM 71.6 °F - 64.4 °F 78% 29.96 in 10.0 mi ESE 8.1 mph - N/A   Mostly Cloudy
9:15 PM 71.6 °F - 66.2 °F 83% 29.97 in 10.0 mi ESE 11.5 mph 16.1 mph N/A   Overcast
9:35 PM 71.6 °F - 66.2 °F 83% 29.97 in 10.0 mi East 9.2 mph - N/A   Mostly Cloudy
9:55 PM 71.6 °F - 66.2 °F 83% 29.99 in 10.0 mi ESE 6.9 mph - N/A   Mostly Cloudy
10:15 PM 71.6 °F - 66.2 °F 83% 30.00 in 10.0 mi ESE 4.6 mph - N/A   Overcast
10:35 PM 71.6 °F - 66.2 °F 83% 30.01 in 10.0 mi ESE 6.9 mph - N/A   Overcast
10:55 PM 71.6 °F - 66.2 °F 83% 30.01 in 10.0 mi ESE 5.8 mph - N/A   Overcast
11:15 PM 71.6 °F - 66.2 °F 83% 30.00 in 10.0 mi ESE 6.9 mph - N/A   Overcast
11:35 PM 71.6 °F - 66.2 °F 83% 30.00 in 10.0 mi ESE 5.8 mph - N/A   Overcast
11:55 PM 71.6 °F - 66.2 °F 83% 29.99 in 10.0 mi ESE 5.8 mph - N/A   Overcast